YUZGU 9 (RS3S) (53308 NORAD) Tracking and Keplerian Element Data

This shows tracking and keplerian element data for the satellite.

Feedback or suggestion? Click here.




ElementValue
Catalog53308
NameYUZGU 9 (RS3S)
Epoch Orbit1054
Epoch Day270.07862538
Epoch Year2022
RAAN190.6421
Inclination51.6401
Eccentricity0.0002128
Argument of Perigee200.6152
Mean Anonmoly159.4754
Mean Motion15.55341065
Decay Rate0.00055951
L11 53308U 98067TT 22270.07862538 .00055951 00000+0 80977-3 0 9999
L22 53308 51.6401 190.6421 0002128 200.6152 159.4754 15.55341065 10540

Live tracking and technical data element details for YUZGU 9 (RS3S) (NORAD 53308). YUZGU 9 (RS3S) can be tracked NOW for your location showing map with azimuth and elevation plus other details from your city location.

Track the satellite on the map from your city or location and see movement details for azimuth, elevation, latitude, longitude, range, height, and movement on the map or in text.







IsCatalogInMostPopularTable: catalog: 53308, numindb: 7
Update: records affected: 1



GetName: 53308 YUZGU 9 (RS3S)

Hit Count: updated at: Wed, 05 Oct 2022 09:13:17 GMT